"Sample Date","Sample Time","Sensor Name","Sample Value","Units","Flow Rate","Sample Interval","Sample Volume","Laser Status","Number Channels","Micron Size 0","Counts/Channel 0","Micron Size 1","Counts/Channel 1","Micron Size 2","Counts/Channel 2","Micron Size 3","Counts/Channel 3","Micron Size 4","Counts/Channel 4","Micron Size 5","Counts/Channel 5","Micron Size 6","Counts/Channel 6","Micron Size 7","Counts/Channel 7","Micron Size 8","Counts/Channel 8","Micron Size 9","Counts/Channel 9","Micron Size 10","Counts/Channel 10","Micron Size 11","Counts/Channel 11","Micron Size 12","Counts/Channel 12","Micron Size 13","Counts/Channel 13","Micron Size 14","Counts/Channel 14","Micron Size 15","Counts/Channel 15","Micron Size 16","Counts/Channel 16","Micron Size 17","Counts/Channel 17","Micron Size 18","Counts/Channel 18","Micron Size 19","Counts/Channel 19","Micron Size 20","Counts/Channel 20","Micron Size 21","Counts/Channel 21","Micron Size 22","Counts/Channel 22","Micron Size 23","Counts/Channel 23","Micron Size 24","Counts/Channel 24","Micron Size 25","Counts/Channel 25","Micron Size 26","Counts/Channel 26","Micron Size 27","Counts/Channel 27","Micron Size 28","Counts/Channel 28","Micron Size 29","Counts/Channel 29","Micron Size 30","Counts/Channel 30","Micron Size 31","Counts/Channel 31"
"07/01/06","18:00:03","AMMA06",59298.000,"cc",28297.018,6.00,2829.702,1,6,0.100,31540.000,0.200,22808.000,0.300,3338.000,0.500,998.000,1.000,614.000,5.000,0
"07/01/06","18:00:09","AMMA06",59151.000,"cc",28347.613,6.00,2834.762,1,6,0.100,31332.000,0.200,22898.000,0.300,3288.000,0.500,1035.000,1.000,598.000,5.000,0
"07/01/06","18:00:15","AMMA06",58623.000,"cc",28336.412,6.00,2833.641,1,6,0.100,31021.000,0.200,22629.000,0.300,3286.000,0.500,1004.000,1.000,683.000,5.000,0
"07/01/06","18:00:21","AMMA06",59021.000,"cc",28314.174,6.00,2831.418,1,6,0.100,31397.000,0.200,22696.000,0.300,3293.000,0.500,1021.000,1.000,614.000,5.000,0
"07/01/06","18:00:27","AMMA06",59038.000,"cc",28332.869,6.00,2833.287,1,6,0.100,31027.000,0.200,22977.000,0.300,3382.000,0.500,990.000,1.000,662.000,5.000,0
"07/01/06","18:00:33","AMMA06",58589.000,"cc",28293.981,6.00,2829.398,1,6,0.100,30994.000,0.200,22601.000,0.300,3384.000,0.500,977.000,1.000,632.000,5.000,1.000
"07/01/06","18:00:39","AMMA06",58741.000,"cc",28312.109,6.00,2831.211,1,6,0.100,30857.000,0.200,22946.000,0.300,3373.000,0.500,947.000,1.000,618.000,5.000,0
"07/01/06","18:00:45","AMMA06",59281.000,"cc",28313.428,6.00,2831.343,1,6,0.100,31384.000,0.200,22962.000,0.300,3324.000,0.500,968.000,1.000,643.000,5.000,0
"07/01/06","18:00:51","AMMA06",58922.000,"cc",28335.664,6.00,2833.567,1,6,0.100,31236.000,0.200,22746.000,0.300,3362.000,0.500,968.000,1.000,610.000,5.000,0
"07/01/06","18:00:57","AMMA06",59198.000,"cc",28319.254,6.00,2831.926,1,6,0.100,31237.000,0.200,22831.000,0.300,3450.000,0.500,1014.000,1.000,664.000,5.000,2.000
"07/01/06","18:01:03","AMMA06",58971.000,"cc",28310.049,6.00,2831.005,1,6,0.100,31192.000,0.200,22856.000,0.300,3266.000,0.500,1037.000,1.000,619.000,5.000,1.000
"07/01/06","18:01:09","AMMA06",59388.000,"cc",28313.738,6.00,2831.374,1,6,0.100,31522.000,0.200,22846.000,0.300,3349.000,0.500,1008.000,1.000,663.000,5.000,0
"07/01/06","18:01:15","AMMA06",59566.000,"cc",28236.977,6.00,2823.698,1,6,0.100,31609.000,0.200,22984.000,0.300,3357.000,0.500,964.000,1.000,651.000,5.000,1.000
"07/01/06","18:01:21","AMMA06",59318.000,"cc",28304.871,6.00,2830.487,1,6,0.100,31198.000,0.200,23072.000,0.300,3403.000,0.500,997.000,1.000,648.000,5.000,0
"07/01/06","18:01:27","AMMA06",59167.000,"cc",28415.449,6.00,2841.545,1,6,0.100,31346.000,0.200,22860.000,0.300,3302.000,0.500,1027.000,1.000,632.000,5.000,0
"07/01/06","18:01:33","AMMA06",58924.000,"cc",28279.732,6.00,2827.973,1,6,0.100,31226.000,0.200,22811.000,0.300,3292.000,0.500,976.000,1.000,619.000,5.000,0
"07/01/06","18:01:39","AMMA06",59182.000,"cc",28281.723,6.00,2828.172,1,6,0.100,31341.000,0.200,22918.000,0.300,3352.000,0.500,933.000,1.000,638.000,5.000,0
"07/01/06","18:01:45","AMMA06",59266.000,"cc",28339.590,6.00,2833.959,1,6,0.100,31254.000,0.200,23016.000,0.300,3380.000,0.500,987.000,1.000,629.000,5.000,0
"07/01/06","18:01:51","AMMA06",58505.000,"cc",28319.145,6.00,2831.915,1,6,0.100,30746.000,0.200,22699.000,0.300,3410.000,0.500,1030.000,1.000,620.000,5.000,0
"07/01/06","18:01:57","AMMA06",59354.000,"cc",28302.070,6.00,2830.207,1,6,0.100,31064.000,0.200,23197.000,0.300,3405.000,0.500,1020.000,1.000,668.000,5.000,0
"07/01/06","18:02:03","AMMA06",59188.000,"cc",28310.760,6.00,2831.076,1,6,0.100,31396.000,0.200,22773.000,0.300,3350.000,0.500,1011.000,1.000,658.000,5.000,0
"07/01/06","18:02:09","AMMA06",58726.000,"cc",28324.742,6.00,2832.474,1,6,0.100,30957.000,0.200,22875.000,0.300,3297.000,0.500,925.000,1.000,672.000,5.000,0
"07/01/06","18:02:15","AMMA06",59265.000,"cc",28287.193,6.00,2828.720,1,6,0.100,31158.000,0.200,23035.000,0.300,3385.000,0.500,1001.000,1.000,685.000,5.000,1.000
"07/01/06","18:02:21","AMMA06",59280.000,"cc",28342.967,6.00,2834.297,1,6,0.100,31347.000,0.200,23065.000,0.300,3274.000,0.500,998.000,1.000,596.000,5.000,0
"07/01/06","18:02:27","AMMA06",59064.000,"cc",28386.592,6.00,2838.659,1,6,0.100,31266.000,0.200,22772.000,0.300,3402.000,0.500,976.000,1.000,648.000,5.000,0
"07/01/06","18:02:33","AMMA06",59356.000,"cc",28301.260,6.00,2830.126,1,6,0.100,31528.000,0.200,22865.000,0.300,3367.000,0.500,951.000,1.000,644.000,5.000,1.000
"07/01/06","18:02:39","AMMA06",58960.000,"cc",28284.012,6.00,2828.401,1,6,0.100,31133.000,0.200,22900.000,0.300,3326.000,0.500,1018.000,1.000,583.000,5.000,0
"07/01/06","18:02:45","AMMA06",58945.000,"cc",28322.250,6.00,2832.225,1,6,0.100,31062.000,0.200,22856.000,0.300,3337.000,0.500,1051.000,1.000,639.000,5.000,0
"07/01/06","18:02:51","AMMA06",59463.000,"cc",28296.299,6.00,2829.630,1,6,0.100,31524.000,0.200,22920.000,0.300,3346.000,0.500,978.000,1.000,695.000,5.000,0
"07/01/06","18:02:57","AMMA06",59299.000,"cc",28339.756,6.00,2833.976,1,6,0.100,31335.000,0.200,22849.000,0.300,3430.000,0.500,985.000,1.000,700.000,5.000,0
"07/01/06","18:03:03","AMMA06",59207.000,"cc",28310.065,6.00,2831.007,1,6,0.100,31120.000,0.200,23084.000,0.300,3371.000,0.500,999.000,1.000,632.000,5.000,1.000
"07/01/06","18:03:09","AMMA06",58858.000,"cc",28334.375,6.00,2833.438,1,6,0.100,31167.000,0.200,22644.000,0.300,3398.000,0.500,992.000,1.000,657.000,5.000,0
"07/01/06","18:03:15","AMMA06",59086.000,"cc",28304.598,6.00,2830.460,1,6,0.100,31312.000,0.200,22802.000,0.300,3399.000,0.500,962.000,1.000,610.000,5.000,1.000
"07/01/06","18:03:21","AMMA06",58978.000,"cc",28305.893,6.00,2830.589,1,6,0.100,31061.000,0.200,22938.000,0.300,3356.000,0.500,980.000,1.000,643.000,5.000,0
"07/01/06","18:03:27","AMMA06",59120.000,"cc",28338.580,6.00,2833.858,1,6,0.100,31199.000,0.200,22948.000,0.300,3362.000,0.500,962.000,1.000,647.000,5.000,2.000
"07/01/06","18:03:33","AMMA06",59475.000,"cc",28314.010,6.00,2831.401,1,6,0.100,31186.000,0.200,23190.000,0.300,3476.000,0.500,939.000,1.000,684.000,5.000,0
"07/01/06","18:03:39","AMMA06",59446.000,"cc",28347.201,6.00,2834.720,1,6,0.100,31067.000,0.200,23206.000,0.300,3495.000,0.500,1011.000,1.000,665.000,5.000,2.000
"07/01/06","18:03:45","AMMA06",59115.000,"cc",28298.135,6.00,2829.814,1,6,0.100,30880.000,0.200,23040.000,0.300,3485.000,0.500,1043.000,1.000,667.000,5.000,0
"07/01/06","18:03:51","AMMA06",59357.000,"cc",28327.191,6.00,2832.719,1,6,0.100,30969.000,0.200,23151.000,0.300,3545.000,0.500,1033.000,1.000,659.000,5.000,0
"07/01/06","18:03:57","AMMA06",59187.000,"cc",28328.066,6.00,2832.807,1,6,0.100,30957.000,0.200,23244.000,0.300,3382.000,0.500,995.000,1.000,608.000,5.000,1.000
"07/01/06","18:04:03","AMMA06",58794.000,"cc",28317.145,6.00,2831.715,1,6,0.100,30675.000,0.200,23147.000,0.300,3360.000,0.500,955.000,1.000,657.000,5.000,0
"07/01/06","18:04:09","AMMA06",59056.000,"cc",28314.238,6.00,2831.424,1,6,0.100,30935.000,0.200,23033.000,0.300,3412.000,0.500,1006.000,1.000,670.000,5.000,0
"07/01/06","18:04:15","AMMA06",59177.000,"cc",28326.920,6.00,2832.692,1,6,0.100,31058.000,0.200,23034.000,0.300,3422.000,0.500,1026.000,1.000,637.000,5.000,0
"07/01/06","18:04:21","AMMA06",59163.000,"cc",28304.711,6.00,2830.471,1,6,0.100,30977.000,0.200,23121.000,0.300,3413.000,0.500,1015.000,1.000,637.000,5.000,0
"07/01/06","18:04:27","AMMA06",59314.000,"cc",28263.217,6.00,2826.322,1,6,0.100,31092.000,0.200,23241.000,0.300,3376.000,0.500,978.000,1.000,627.000,5.000,0
"07/01/06","18:04:33","AMMA06",59090.000,"cc",28375.709,6.00,2837.571,1,6,0.100,30948.000,0.200,23081.000,0.300,3459.000,0.500,1009.000,1.000,591.000,5.000,2.000
"07/01/06","18:04:39","AMMA06",58885.000,"cc",28367.676,6.00,2836.768,1,6,0.100,30643.000,0.200,23117.000,0.300,3448.000,0.500,996.000,1.000,681.000,5.000,0
"07/01/06","18:04:45","AMMA06",59138.000,"cc",28324.762,6.00,2832.476,1,6,0.100,30833.000,0.200,23251.000,0.300,3408.000,0.500,980.000,1.000,665.000,5.000,1.000
"07/01/06","18:04:51","AMMA06",59121.000,"cc",28285.025,6.00,2828.503,1,6,0.100,30856.000,0.200,23170.000,0.300,3490.000,0.500,946.000,1.000,659.000,5.000,0
"07/01/06","18:04:57","AMMA06",59242.000,"cc",28287.533,6.00,2828.753,1,6,0.100,30676.000,0.200,23363.000,0.300,3508.000,0.500,1030.000,1.000,665.000,5.000,0
"07/01/06","18:05:03","AMMA06",59264.000,"cc",28330.729,6.00,2833.073,1,6,0.100,30687.000,0.200,23466.000,0.300,3512.000,0.500,954.000,1.000,644.000,5.000,1.000
"07/01/06","18:05:09","AMMA06",58811.000,"cc",28335.424,6.00,2833.543,1,6,0.100,30382.000,0.200,23352.000,0.300,3464.000,0.500,970.000,1.000,641.000,5.000,2.000
"07/01/06","18:05:15","AMMA06",59382.000,"cc",28319.940,6.00,2831.994,1,6,0.100,30689.000,0.200,23492.000,0.300,3579.000,0.500,956.000,1.000,665.000,5.000,1.000
"07/01/06","18:05:21","AMMA06",59424.000,"cc",28326.002,6.00,2832.600,1,6,0.100,30676.000,0.200,23529.000,0.300,3559.000,0.500,996.000,1.000,663.000,5.000,1.000
"07/01/06","18:05:27","AMMA06",59599.000,"cc",28291.080,6.00,2829.108,1,6,0.100,30647.000,0.200,23648.000,0.300,3650.000,0.500,1016.000,1.000,638.000,5.000,0
"07/01/06","18:05:33","AMMA06",59352.000,"cc",28372.682,6.00,2837.268,1,6,0.100,30539.000,0.200,23605.000,0.300,3550.000,0.500,1002.000,1.000,656.000,5.000,0
"07/01/06","18:05:39","AMMA06",59080.000,"cc",28311.260,6.00,2831.126,1,6,0.100,30094.000,0.200,23686.000,0.300,3649.000,0.500,971.000,1.000,680.000,5.000,0
"07/01/06","18:05:45","AMMA06",59300.000,"cc",28251.191,6.00,2825.119,1,6,0.100,30789.000,0.200,23299.000,0.300,3574.000,0.500,941.000,1.000,697.000,5.000,0
"07/01/06","18:05:51","AMMA06",59101.000,"cc",28321.270,6.00,2832.127,1,6,0.100,30238.000,0.200,23680.000,0.300,3587.000,0.500,989.000,1.000,606.000,5.000,1.000
"07/01/06","18:05:57","AMMA06",59601.000,"cc",28340.897,6.00,2834.090,1,6,0.100,30640.000,0.200,23756.000,0.300,3531.000,0.500,1005.000,1.000,669.000,5.000,0
"07/01/06","18:06:03","AMMA06",59324.000,"cc",28335.356,6.00,2833.536,1,6,0.100,30275.000,0.200,23813.000,0.300,3608.000,0.500,987.000,1.000,641.000,5.000,0
"07/01/06","18:06:09","AMMA06",59942.000,"cc",28275.834,6.00,2827.584,1,6,0.100,30931.000,0.200,23707.000,0.300,3600.000,0.500,1029.000,1.000,674.000,5.000,1.000
"07/01/06","18:06:15","AMMA06",59689.000,"cc",28321.666,6.00,2832.167,1,6,0.100,30795.000,0.200,23704.000,0.300,3564.000,0.500,937.000,1.000,689.000,5.000,0
"07/01/06","18:06:21","AMMA06",59023.000,"cc",28340.787,6.00,2834.079,1,6,0.100,30519.000,0.200,23408.000,0.300,3467.000,0.500,944.000,1.000,684.000,5.000,1.000
"07/01/06","18:06:27","AMMA06",59175.000,"cc",28319.951,6.00,2831.995,1,6,0.100,30803.000,0.200,23276.000,0.300,3498.000,0.500,973.000,1.000,625.000,5.000,0
"07/01/06","18:06:33","AMMA06",59112.000,"cc",28308.555,6.00,2830.856,1,6,0.100,30474.000,0.200,23473.000,0.300,3520.000,0.500,1011.000,1.000,633.000,5.000,1.000
"07/01/06","18:06:39","AMMA06",59269.000,"cc",28299.014,6.00,2829.902,1,6,0.100,30913.000,0.200,23248.000,0.300,3480.000,0.500,969.000,1.000,659.000,5.000,0
"07/01/06","18:06:45","AMMA06",59174.000,"cc",28333.904,6.00,2833.391,1,6,0.100,30931.000,0.200,23201.000,0.300,3388.000,0.500,1003.000,1.000,650.000,5.000,1.000
"07/01/06","18:06:51","AMMA06",59177.000,"cc",28299.734,6.00,2829.974,1,6,0.100,30544.000,0.200,23615.000,0.300,3458.000,0.500,940.000,1.000,620.000,5.000,0
"07/01/06","18:06:57","AMMA06",59154.000,"cc",28276.738,6.00,2827.674,1,6,0.100,30882.000,0.200,23353.000,0.300,3323.000,0.500,961.000,1.000,632.000,5.000,3.000
"07/01/06","18:07:03","AMMA06",59111.000,"cc",28321.186,6.00,2832.119,1,6,0.100,30939.000,0.200,23046.000,0.300,3454.000,0.500,1016.000,1.000,655.000,5.000,1.000
"07/01/06","18:07:09","AMMA06",59699.000,"cc",28312.674,6.00,2831.268,1,6,0.100,31204.000,0.200,23487.000,0.300,3395.000,0.500,983.000,1.000,629.000,5.000,1.000
"07/01/06","18:07:15","AMMA06",59318.000,"cc",28337.588,6.00,2833.759,1,6,0.100,30947.000,0.200,23260.000,0.300,3446.000,0.500,1010.000,1.000,653.000,5.000,2.000
"07/01/06","18:07:21","AMMA06",59777.000,"cc",28314.785,6.00,2831.479,1,6,0.100,31323.000,0.200,23263.000,0.300,3503.000,0.500,1034.000,1.000,653.000,5.000,1.000
"07/01/06","18:07:27","AMMA06",59760.000,"cc",28327.527,6.00,2832.753,1,6,0.100,31034.000,0.200,23597.000,0.300,3508.000,0.500,979.000,1.000,642.000,5.000,0
"07/01/06","18:07:33","AMMA06",59589.000,"cc",28355.469,6.00,2835.547,1,6,0.100,31118.000,0.200,23450.000,0.300,3365.000,0.500,975.000,1.000,681.000,5.000,0
"07/01/06","18:07:39","AMMA06",59144.000,"cc",28349.389,6.00,2834.939,1,6,0.100,30679.000,0.200,23402.000,0.300,3442.000,0.500,984.000,1.000,637.000,5.000,0
"07/01/06","18:07:45","AMMA06",59425.000,"cc",28307.547,6.00,2830.755,1,6,0.100,30661.000,0.200,23647.000,0.300,3460.000,0.500,1035.000,1.000,621.000,5.000,1.000
"07/01/06","18:07:51","AMMA06",59598.000,"cc",28309.520,6.00,2830.952,1,6,0.100,30952.000,0.200,23585.000,0.300,3449.000,0.500,972.000,1.000,640.000,5.000,0
"07/01/06","18:07:57","AMMA06",59604.000,"cc",28319.236,6.00,2831.924,1,6,0.100,30800.000,0.200,23728.000,0.300,3454.000,0.500,949.000,1.000,673.000,5.000,0
"07/01/06","18:08:03","AMMA06",59797.000,"cc",28250.576,6.00,2825.058,1,6,0.100,30976.000,0.200,23718.000,0.300,3529.000,0.500,964.000,1.000,610.000,5.000,0
"07/01/06","18:08:09","AMMA06",59995.000,"cc",28285.670,6.00,2828.567,1,6,0.100,30974.000,0.200,23832.000,0.300,3543.000,0.500,1020.000,1.000,626.000,5.000,0
"07/01/06","18:08:15","AMMA06",59359.000,"cc",28371.465,6.00,2837.147,1,6,0.100,30712.000,0.200,23610.000,0.300,3432.000,0.500,993.000,1.000,611.000,5.000,1.000
"07/01/06","18:08:21","AMMA06",59845.000,"cc",28322.148,6.00,2832.215,1,6,0.100,30800.000,0.200,23728.000,0.300,3599.000,0.500,1033.000,1.000,685.000,5.000,0
"07/01/06","18:08:27","AMMA06",59274.000,"cc",28283.992,6.00,2828.399,1,6,0.100,30725.000,0.200,23461.000,0.300,3421.000,0.500,1046.000,1.000,620.000,5.000,1.000
"07/01/06","18:08:33","AMMA06",59378.000,"cc",28323.877,6.00,2832.388,1,6,0.100,30660.000,0.200,23520.000,0.300,3530.000,0.500,995.000,1.000,673.000,5.000,0
"07/01/06","18:08:39","AMMA06",59521.000,"cc",28303.916,6.00,2830.392,1,6,0.100,30822.000,0.200,23502.000,0.300,3528.000,0.500,1039.000,1.000,629.000,5.000,1.000
"07/01/06","18:08:45","AMMA06",59316.000,"cc",28359.441,6.00,2835.944,1,6,0.100,30749.000,0.200,23439.000,0.300,3505.000,0.500,957.000,1.000,666.000,5.000,0
"07/01/06","18:08:51","AMMA06",59496.000,"cc",28335.670,6.00,2833.567,1,6,0.100,30844.000,0.200,23468.000,0.300,3544.000,0.500,946.000,1.000,692.000,5.000,2.000
"07/01/06","18:08:57","AMMA06",59406.000,"cc",28349.981,6.00,2834.998,1,6,0.100,30559.000,0.200,23722.000,0.300,3509.000,0.500,960.000,1.000,655.000,5.000,1.000
"07/01/06","18:09:03","AMMA06",59196.000,"cc",28362.986,6.00,2836.299,1,6,0.100,30693.000,0.200,23391.000,0.300,3542.000,0.500,968.000,1.000,602.000,5.000,0
"07/01/06","18:09:09","AMMA06",59291.000,"cc",28249.408,6.00,2824.941,1,6,0.100,30681.000,0.200,23485.000,0.300,3526.000,0.500,980.000,1.000,619.000,5.000,0
"07/01/06","18:09:15","AMMA06",59440.000,"cc",28317.898,6.00,2831.790,1,6,0.100,30780.000,0.200,23570.000,0.300,3488.000,0.500,990.000,1.000,612.000,5.000,0
"07/01/06","18:09:21","AMMA06",59502.000,"cc",28316.006,6.00,2831.601,1,6,0.100,30970.000,0.200,23514.000,0.300,3363.000,0.500,991.000,1.000,663.000,5.000,1.000
"07/01/06","18:09:27","AMMA06",59299.000,"cc",28343.873,6.00,2834.388,1,6,0.100,30640.000,0.200,23474.000,0.300,3491.000,0.500,1035.000,1.000,659.000,5.000,0
"07/01/06","18:09:33","AMMA06",59347.000,"cc",28289.932,6.00,2828.993,1,6,0.100,30638.000,0.200,23483.000,0.300,3564.000,0.500,985.000,1.000,677.000,5.000,0
"07/01/06","18:09:39","AMMA06",59352.000,"cc",28295.301,6.00,2829.530,1,6,0.100,30662.000,0.200,23540.000,0.300,3521.000,0.500,965.000,1.000,664.000,5.000,0
"07/01/06","18:09:45","AMMA06",59399.000,"cc",28369.340,6.00,2836.934,1,6,0.100,30612.000,0.200,23533.000,0.300,3591.000,0.500,1003.000,1.000,660.000,5.000,0
"07/01/06","18:09:51","AMMA06",59327.000,"cc",28327.977,6.00,2832.798,1,6,0.100,30606.000,0.200,23534.000,0.300,3563.000,0.500,970.000,1.000,654.000,5.000,0
"07/01/06","18:09:57","AMMA06",59533.000,"cc",28264.219,6.00,2826.422,1,6,0.100,30697.000,0.200,23726.000,0.300,3504.000,0.500,949.000,1.000,657.000,5.000,0
"07/01/06","18:10:03","AMMA06",59946.000,"cc",28292.037,6.00,2829.204,1,6,0.100,30896.000,0.200,23835.000,0.300,3523.000,0.500,1022.000,1.000,670.000,5.000,0
"07/01/06","18:10:09","AMMA06",59408.000,"cc",28348.633,6.00,2834.864,1,6,0.100,30962.000,0.200,23279.000,0.300,3467.000,0.500,998.000,1.000,702.000,5.000,0
"07/01/06","18:10:15","AMMA06",59037.000,"cc",28339.857,6.00,2833.986,1,6,0.100,30339.000,0.200,23499.000,0.300,3536.000,0.500,1011.000,1.000,651.000,5.000,1.000
"07/01/06","18:10:21","AMMA06",59851.000,"cc",28270.004,6.00,2827.001,1,6,0.100,30935.000,0.200,23679.000,0.300,3532.000,0.500,1024.000,1.000,680.000,5.000,1.000
"07/01/06","18:10:27","AMMA06",60026.000,"cc",28366.084,6.00,2836.609,1,6,0.100,31169.000,0.200,23700.000,0.300,3466.000,0.500,1050.000,1.000,641.000,5.000,0
"07/01/06","18:10:33","AMMA06",59591.000,"cc",28316.166,6.00,2831.617,1,6,0.100,30815.000,0.200,23527.000,0.300,3550.000,0.500,1033.000,1.000,666.000,5.000,0
"07/01/06","18:10:39","AMMA06",59699.000,"cc",28292.322,6.00,2829.232,1,6,0.100,30554.000,0.200,23973.000,0.300,3574.000,0.500,959.000,1.000,639.000,5.000,0
"07/01/06","18:10:45","AMMA06",59906.000,"cc",28302.744,6.00,2830.275,1,6,0.100,30820.000,0.200,23879.000,0.300,3540.000,0.500,1006.000,1.000,661.000,5.000,0
"07/01/06","18:10:51","AMMA06",59746.000,"cc",28356.551,6.00,2835.655,1,6,0.100,30713.000,0.200,23747.000,0.300,3627.000,0.500,1026.000,1.000,633.000,5.000,0
"07/01/06","18:10:57","AMMA06",59800.000,"cc",28308.500,6.00,2830.850,1,6,0.100,30628.000,0.200,23994.000,0.300,3596.000,0.500,982.000,1.000,600.000,5.000,0
"07/01/06","18:11:03","AMMA06",59780.000,"cc",28359.627,6.00,2835.963,1,6,0.100,30925.000,0.200,23750.000,0.300,3461.000,0.500,976.000,1.000,668.000,5.000,0
"07/01/06","18:11:09","AMMA06",59488.000,"cc",28293.619,6.00,2829.362,1,6,0.100,30481.000,0.200,23871.000,0.300,3571.000,0.500,922.000,1.000,643.000,5.000,0
"07/01/06","18:11:15","AMMA06",59881.000,"cc",28356.406,6.00,2835.641,1,6,0.100,30852.000,0.200,23928.000,0.300,3433.000,0.500,1016.000,1.000,652.000,5.000,0
"07/01/06","18:11:21","AMMA06",59379.000,"cc",28318.141,6.00,2831.814,1,6,0.100,30540.000,0.200,23520.000,0.300,3660.000,0.500,989.000,1.000,669.000,5.000,1.000
"07/01/06","18:11:27","AMMA06",59051.000,"cc",28280.348,6.00,2828.035,1,6,0.100,30417.000,0.200,23475.000,0.300,3583.000,0.500,992.000,1.000,584.000,5.000,0
"07/01/06","18:11:33","AMMA06",59687.000,"cc",28257.998,6.00,2825.800,1,6,0.100,30635.000,0.200,23788.000,0.300,3586.000,0.500,1022.000,1.000,656.000,5.000,0
"07/01/06","18:11:39","AMMA06",59937.000,"cc",28322.967,6.00,2832.297,1,6,0.100,30721.000,0.200,24003.000,0.300,3567.000,0.500,996.000,1.000,649.000,5.000,1.000
"07/01/06","18:11:45","AMMA06",59899.000,"cc",28373.656,6.00,2837.366,1,6,0.100,30556.000,0.200,24087.000,0.300,3578.000,0.500,1006.000,1.000,672.000,5.000,0
"07/01/06","18:11:51","AMMA06",59567.000,"cc",28332.285,6.00,2833.229,1,6,0.100,30320.000,0.200,23932.000,0.300,3605.000,0.500,1027.000,1.000,683.000,5.000,0
"07/01/06","18:11:57","AMMA06",59539.000,"cc",28282.992,6.00,2828.299,1,6,0.100,30318.000,0.200,24041.000,0.300,3539.000,0.500,993.000,1.000,647.000,5.000,1.000
"07/01/06","18:12:03","AMMA06",59592.000,"cc",28337.791,6.00,2833.779,1,6,0.100,30370.000,0.200,23917.000,0.300,3651.000,0.500,1012.000,1.000,642.000,5.000,0
"07/01/06","18:12:09","AMMA06",59690.000,"cc",28253.936,6.00,2825.394,1,6,0.100,30422.000,0.200,23941.000,0.300,3629.000,0.500,1021.000,1.000,677.000,5.000,0
"07/01/06","18:12:15","AMMA06",59940.000,"cc",28330.908,6.00,2833.091,1,6,0.100,30811.000,0.200,23907.000,0.300,3623.000,0.500,963.000,1.000,635.000,5.000,1.000
"07/01/06","18:12:21","AMMA06",59283.000,"cc",28332.832,6.00,2833.283,1,6,0.100,30566.000,0.200,23524.000,0.300,3449.000,0.500,1047.000,1.000,696.000,5.000,1.000
"07/01/06","18:12:27","AMMA06",59682.000,"cc",28330.672,6.00,2833.067,1,6,0.100,30853.000,0.200,23614.000,0.300,3535.000,0.500,992.000,1.000,688.000,5.000,0
"07/01/06","18:12:33","AMMA06",59343.000,"cc",28303.164,6.00,2830.317,1,6,0.100,30380.000,0.200,23793.000,0.300,3569.000,0.500,965.000,1.000,636.000,5.000,0
"07/01/06","18:12:39","AMMA06",59475.000,"cc",28396.914,6.00,2839.692,1,6,0.100,30981.000,0.200,23439.000,0.300,3371.000,0.500,961.000,1.000,722.000,5.000,1.000
"07/01/06","18:12:45","AMMA06",59378.000,"cc",28333.287,6.00,2833.329,1,6,0.100,30613.000,0.200,23542.000,0.300,3557.000,0.500,1032.000,1.000,634.000,5.000,0
"07/01/06","18:12:51","AMMA06",58827.000,"cc",28306.406,6.00,2830.641,1,6,0.100,30655.000,0.200,23094.000,0.300,3453.000,0.500,959.000,1.000,665.000,5.000,1.000
"07/01/06","18:12:57","AMMA06",59294.000,"cc",28264.336,6.00,2826.434,1,6,0.100,30846.000,0.200,23308.000,0.300,3427.000,0.500,1052.000,1.000,660.000,5.000,1.000
"07/01/06","18:13:03","AMMA06",59647.000,"cc",28299.906,6.00,2829.991,1,6,0.100,31108.000,0.200,23603.000,0.300,3352.000,0.500,975.000,1.000,609.000,5.000,0
"07/01/06","18:13:09","AMMA06",59190.000,"cc",28325.516,6.00,2832.552,1,6,0.100,30708.000,0.200,23410.000,0.300,3435.000,0.500,973.000,1.000,663.000,5.000,1.000
"07/01/06","18:13:15","AMMA06",59598.000,"cc",28326.611,6.00,2832.661,1,6,0.100,31017.000,0.200,23595.000,0.300,3321.000,0.500,1008.000,1.000,656.000,5.000,1.000
"07/01/06","18:13:21","AMMA06",59956.000,"cc",28304.463,6.00,2830.447,1,6,0.100,31382.000,0.200,23496.000,0.300,3382.000,0.500,1052.000,1.000,643.000,5.000,1.000
"07/01/06","18:13:27","AMMA06",59571.000,"cc",28342.533,6.00,2834.253,1,6,0.100,31190.000,0.200,23340.000,0.300,3350.000,0.500,1026.000,1.000,665.000,5.000,0
"07/01/06","18:13:33","AMMA06",59565.000,"cc",28310.514,6.00,2831.052,1,6,0.100,31134.000,0.200,23296.000,0.300,3502.000,0.500,982.000,1.000,650.000,5.000,1.000
"07/01/06","18:13:39","AMMA06",59462.000,"cc",28310.840,6.00,2831.084,1,6,0.100,30945.000,0.200,23353.000,0.300,3516.000,0.500,981.000,1.000,664.000,5.000,3.000
"07/01/06","18:13:45","AMMA06",59474.000,"cc",28269.684,6.00,2826.969,1,6,0.100,30965.000,0.200,23458.000,0.300,3409.000,0.500,1012.000,1.000,630.000,5.000,0
"07/01/06","18:13:51","AMMA06",59646.000,"cc",28333.461,6.00,2833.346,1,6,0.100,30879.000,0.200,23658.000,0.300,3485.000,0.500,1017.000,1.000,607.000,5.000,0
"07/01/06","18:13:57","AMMA06",59339.000,"cc",28314.102,6.00,2831.410,1,6,0.100,31073.000,0.200,23168.000,0.300,3514.000,0.500,965.000,1.000,619.000,5.000,0
"07/01/06","18:14:03","AMMA06",59649.000,"cc",28357.652,6.00,2835.765,1,6,0.100,31258.000,0.200,23237.000,0.300,3515.000,0.500,949.000,1.000,690.000,5.000,0